Regional Weather Roundup
Issued by NWS Albany, NY

Home | Current Version | Previous Version | Graphics & Text | Print | Product List | Glossary On
Versions: 1 2 3 4 5 6 7 8 9 10 11 12 13 14 15 16 17 18 19 20 21 22 23 24 25 26 27 28 29 30 31 32 33 34 35 36 37 38 39 40 41 42 43 44 45 46 47 48 49 50
707
ASUS41 KALY 230510
RWRALY

NEW YORK STATE HOURLY WEATHER ROUNDUP
NATIONAL WEATHER SERVICE ALBANY NY
100 AM EDT SAT SEP 23 2017

NOTE: "FAIR" INDICATES FEW OR NO CLOUDS BELOW 12,000 FEET WITH NO
SIGNIFICANT WEATHER AND/OR NO OBSTRUCTIONS TO VISIBILITY.

NYZ032-033-038>043-046>054-057>066-NYZ062>081-082-084-230600-
EAST


CITY           SKY/WX    TMP DP  RH WIND       PRES   REMARKS
ALBANY         CLEAR     61  50  67 N6        30.07R
GLENS FALLS    CLEAR     56  49  77 N5        30.07S
POUGHKEEPSIE   CLOUDY    63  52  67 N5        30.01S
NEWBURGH       MOCLDY    66  54  63 CALM      30.04R
MONTGOMERY     CLEAR     60  54  80 CALM      30.03R
WHITE PLAINS   CLEAR     69  54  58 N12       29.98S
ISLIP          PTCLDY    69  59  70 N13       29.95R
NEW YORK CITY  PTCLDY    72  57  59 N8        29.98R
CENTRAL PARK   CLEAR     73  56  54 VRB6      30.02R
$$

NYZ005>009-017-018-044>046-055-056-230600-
CENTRAL


CITY           SKY/WX    TMP DP  RH WIND       PRES   REMARKS
FULTON         FOG       60  59  96 CALM      30.09S VSB 1/4
SYRACUSE       CLEAR     61  59  93 SW3       30.08S
ROME           CLEAR     55  55 100 E3        30.09S
ELMIRA         CLEAR     55  54  96 CALM      30.11R
BINGHAMTON     CLEAR     59  57  93 W5        30.11S
MONTICELLO     CLEAR     62  46  55 N6        30.09R
$$

NYZ026>034-041>043-087-230600-
NORTH


CITY           SKY/WX    TMP DP  RH WIND       PRES   REMARKS
WATERTOWN      CLEAR     54  54 100 CALM      30.08F FOG
FORT DRUM      NOT AVBL
OGDENSBURG     FAIR      55  54  96 CALM      30.07S
MASSENA        CLEAR     54  54 100 CALM      30.08F
SARANAC LAKE   CLEAR     44  44 100 CALM      30.12S
PLATTSBURGH    CLEAR     54  51  90 CALM      30.07F
$$

NYZ001>004-010>016-019>021-085-230600-
WEST


CITY           SKY/WX    TMP DP  RH WIND       PRES   REMARKS
NIAGARA FALLS  CLEAR     64  56  75 CALM      30.09F
BUFFALO        CLEAR     63  57  81 SE3       30.10F
DUNKIRK        CLEAR     57  56  96 S5        30.10S
JAMESTOWN      CLEAR     64  56  75 N3        30.15S
WELLSVILLE     CLEAR     58  55  90 CALM      30.17S
ROCHESTER      CLEAR     58  55  90 SW3       30.11S
PENN YAN       CLEAR     60  56  86 SW3       30.12R
$$

             KEY
       WCI = WIND CHILL INDEX
       VSB = VISIBILITY
       HX  = HEAT INDEX
$$




USA.gov is the U.S. government's official web portal to all federal, state and local government web resources and services.